GW2149 Weather Reports


Display with metric or nautical units.
time (UTC)temp
F
wind
direction
speed
MPH
gust
MPH
rain 1hr
in
rain 24hr
in
rain mn
in
humidity
%
barometer
mb
20260506073039 57 192 8.0 21.0 0.00 0.00 0.00 86 1012.5
20260506071538 57 162 8.0 18.0 0.00 0.00 0.00 85 1012.6
20260506061538 58 211 9.0 24.0 0.00 0.00 0.00 83 1012.4
20260506044537 59 201 7.0 22.0 0.00 0.00 0.00 81 1012.8
20260506043042 60 174 9.0 25.0 0.00 0.00 0.00 80 1012.8
20260506041540 60 167 9.0 26.0 0.00 0.00 0.00 80 1012.8
20260506040042 59 163 11.0 23.0 0.00 0.00 0.00 80 1013.0
20260506034535 59 225 6.0 16.0 0.00 0.00 0.00 80 1012.7
20260506033042 59 247 11.0 21.0 0.00 0.00 0.00 80 1012.8
20260506031542 59 225 7.0 19.0 0.00 0.00 0.00 79 1012.6
20260506030040 60 191 8.0 20.0 0.00 0.00 0.00 79 1012.8
20260506024536 60 202 8.0 22.0 0.00 0.00 0.00 79 1012.8
20260506023048 60 188 10.0 29.0 0.00 0.00 0.00 78 1012.8
20260506021550 60 218 6.0 21.0 0.00 0.00 0.00 78 1012.9
20260506020040 60 134 10.0 23.0 0.00 0.00 0.00 77 1012.8
20260506014540 61 218 11.0 25.0 0.00 0.00 0.00 75 1012.7
20260506013035 62 209 10.0 23.0 0.00 0.00 0.00 73 1012.4
20260506011542 63 180 11.0 25.0 0.00 0.00 0.00 70 1012.3
20260506010050 63 134 12.0 26.0 0.00 0.00 0.00 70 1012.0
20260506004551 62 222 10.0 23.0 0.00 0.00 0.00 71 1011.8
20260506003038 62 214 9.0 26.0 0.00 0.00 0.00 71 1011.6
20260506001543 63 197 10.0 28.0 0.00 0.00 0.00 71 1011.5
20260506000043 62 176 12.0 25.0 0.00 0.00 0.00 71 1011.4
20260505234600 62 195 10.0 24.0 0.00 0.00 0.00 71 1011.1
20260505233039 62 211 11.0 23.0 0.00 0.00 0.00 71 1011.1
20260505231535 63 204 8.0 26.0 0.00 0.00 0.00 70 1010.7
20260505230036 63 273 11.0 27.0 0.00 0.00 0.00 69 1010.5
20260505224540 63 172 12.0 25.0 0.00 0.00 0.00 68 1010.7
20260505223040 64 206 8.0 26.0 0.00 0.00 0.00 67 1010.5
20260505221539 64 215 9.0 30.0 0.00 0.00 0.00 67 1010.4
20260505220048 65 216 11.0 21.0 0.00 0.00 0.00 66 1010.2
20260505214600 66 184 11.0 23.0 0.00 0.00 0.00 64 1010.2
20260505213051 66 175 10.0 26.0 0.00 0.00 0.00 63 1010.0
20260505211537 67 289 6.0 14.0 0.00 0.00 0.00 63 1009.9
20260505210037 67 207 5.0 16.0 0.00 0.00 0.00 63 1009.8
20260505204542 67 350 8.0 18.0 0.00 0.00 0.00 64 1009.9
20260505203047 67 186 7.0 16.0 0.00 0.00 0.00 65 1010.0
20260505201542 66 180 6.0 14.0 0.00 0.00 0.00 66 1010.1
20260505200048 67 165 8.0 16.0 0.00 0.00 0.00 65 1010.2
20260505194546 68 201 7.0 15.0 0.00 0.00 0.00 65 1010.3
20260505193037 68 180 6.0 13.0 0.00 0.00 0.00 65 1010.6
20260505191537 66 175 6.0 16.0 0.00 0.00 0.00 67 1010.9
20260505190037 66 186 5.0 16.0 0.00 0.00 0.00 68 1011.1
20260505184540 67 155 7.0 15.0 0.00 0.00 0.00 68 1011.2
20260505183039 67 158 7.0 14.0 0.00 0.00 0.00 68 1011.3
20260505181537 67 180 6.0 16.0 0.00 0.00 0.00 68 1011.5
20260505180100 67 195 7.0 13.0 0.00 0.00 0.00 68 1011.6
20260505174556 66 175 5.0 20.0 0.00 0.00 0.00 69 1011.6
20260505173044 66 153 5.0 15.0 0.00 0.00 0.00 71 1011.7
20260505171535 65 222 6.0 17.0 0.00 0.00 0.00 71 1011.9
20260505170034 66 174 6.0 20.0 0.00 0.00 0.00 69 1011.7
20260505164535 66 101 5.0 15.0 0.00 0.00 0.00 69 1011.9
20260505163041 66 137 5.0 15.0 0.00 0.00 0.00 70 1012.1
20260505161539 66 127 5.0 17.0 0.00 0.00 0.00 69 1012.2
20260505153044 67 184 4.0 16.0 0.00 0.00 0.00 68 1012.4
20260505151542 65 169 6.0 12.0 0.00 0.00 0.00 71 1012.7
20260505124546 60 184 3.0 9.0 0.00 0.00 0.00 79 1012.1
20260505123102 60 180 4.0 9.0 0.00 0.00 0.00 78 1012.3
20260505121539 59 168 2.0 9.0 0.00 0.00 0.00 80 1012.2
20260505120041 58 199 3.0 6.0 0.00 0.00 0.00 82 1012.2
20260505114538 57 233 3.0 8.0 0.00 0.00 0.00 85 1012.4
20260505113035 56 182 3.0 7.0 0.00 0.00 0.00 88 1012.5
20260505111540 55 161 2.0 7.0 0.00 0.00 0.00 89 1012.5
20260505101541 53 159 2.0 6.0 0.00 0.00 0.00 91 1011.7
20260505100042 53 0 1.0 8.0 0.00 0.00 0.00 90 1011.3
20260505094538 53 177 3.0 8.0 0.00 0.00 0.00 90 1011.5
20260505093040 53 163 2.0 5.0 0.00 0.00 0.00 90 1011.5
20260505091544 53 174 2.0 4.0 0.00 0.00 0.00 89 1011.5
20260505090038 53 201 2.0 7.0 0.00 0.00 0.00 89 1011.5
20260505084541 54 185 2.0 9.0 0.00 0.00 0.00 88 1011.6
20260505083040 54 181 5.0 13.0 0.00 0.00 0.00 88 1011.5
20260505081540 54 211 4.0 10.0 0.00 0.00 0.00 88 1011.6